Location: Delettes
(50.6178°N, 2.2123°E)
Time: 02:23:35
(UTC+00:00)

Daily predictions for brighter satellites

Satellite Brightness Start Highest point End
(mag) Time Altitude Azimuth Time Altitude Azimuth Time Altitude Azimuth
Cosmos 2263 Rocket 4.4 03:01:26 21° E 03:01:26 21° E 03:04:25 10° NE
ATLAS 3B R/B 3.4 03:30:35 47° NE 03:30:35 47° NE 03:37:16 10° ESE
Lacrosse 4 Rocket 4.5 03:38:10 11° ESE 03:38:10 11° ESE 03:38:23 10° SE
ALOS 3.9 03:49:11 10° NNE 03:53:16 33° E 03:53:16 33° E
Cosmos 2227 Rocket 4.2 03:57:13 18° N 03:57:13 18° N 03:58:48 10° NNE
Cosmos 2344 4.4 03:53:01 41° NNW 03:56:41 66° NE 04:08:46 10° ESE
NOSS 3-2 (C) 4.3 04:00:07 54° SSW 04:00:07 54° SSW 04:06:57 10° SSE
CENTAUR R/B 3.3 04:01:35 59° SSW 04:01:35 59° SSW 04:09:15 10° SSE
NOSS 3-4 (A) 4.1 04:00:50 44° SSE 04:01:52 48° ESE 04:07:54 10° NE
NOSS 3-4 (C) 4.1 04:00:54 43° SSE 04:02:01 48° ESE 04:08:02 10° NE
SL-4 R/B 4.0 04:15:02 25° ENE 04:15:02 25° ENE 04:16:42 10° ENE
Cosmos 1680 Rocket 3.9 04:20:03 57° NNE 04:20:40 61° ENE 04:25:56 10° SE
ATLAS 2AS CENTAUR R/B 3.5 04:15:31 18° SSW 04:21:30 58° ESE 04:29:09 10° NE
Cosmos 2297 Rocket 4.1 04:30:31 17° N 04:30:31 17° N 04:32:25 10° NNE
ATLAS 5 CENTAUR R/B 3.5 04:31:19 26° NE 04:31:19 26° NE 04:32:27 10° NE
ATLAS CENTAUR R/B 2.5 04:32:06 38° E 04:32:06 38° E 04:34:52 10° ESE
Lacrosse 5 2.7 04:32:03 40° S 04:33:10 47° SE 04:38:01 10° ENE
ADEOS 3.9 04:28:10 10° NNE 04:33:24 66° ESE 04:38:35 10° S
Cosmos 1328 Rocket 4.3 04:35:39 47° SSE 04:35:39 47° SSE 04:38:52 10° SSE
Cosmos 2112 Rocket 4.1 04:38:53 46° N 04:40:28 75° ENE 04:45:49 10° SSE
Gbstr 26 Del rocket 3.9 04:43:34 35° SSE 04:43:34 35° SSE 04:46:03 10° SE
Cosmos 1745 Rocket 4.5 04:44:18 42° NW 04:44:18 42° NW 04:48:59 10° N
Cosmos 2263 Rocket 2.1 04:43:11 68° WNW 04:43:25 69° WNW 04:49:08 10° NNE
SJ 16-02 1.3 04:45:52 81° ESE 04:45:54 81° ESE 04:50:22 10° NNE
Meteor 1-26 Rocket 4.1 04:48:59 29° NNW 04:52:01 75° W 04:57:37 10° S
Cosmos 1898 Rocket 4.5 04:48:27 10° S 04:53:32 48° ESE 04:58:40 10° NNE
FALCON 9 DEB 4.5 04:56:45 33° SE 04:56:45 33° SE 04:59:30 10° E
Cosmos 1766 Rocket 3.8 04:58:04 53° NNW 04:58:04 53° NNW 05:01:38 10° N
FENGYUN 3A 3.5 04:52:53 10° NNE 04:58:19 72° WNW 05:03:40 10° SSW
Cosmos 2082 Rocket 4.3 04:58:03 10° N 05:02:07 19° NE 05:06:10 10° E
Cosmos 2181 Rocket 3.9 04:56:59 10° NNW 05:03:08 65° W 05:09:12 10° S
Cosmos 1408 Rocket 3.6 04:58:41 10° S 05:03:09 79° E 05:07:36 10° NNE
USA 307 3.2 05:05:08 52° NNW 05:05:30 54° N 05:09:45 10° E
COSMO-SKYMED 1 2.4 05:02:24 10° S 05:06:45 76° WSW 05:07:59 46° NNW
Cosmos 1709 Rocket 4.1 05:01:46 10° SSW 05:08:00 55° WNW 05:14:17 10° N
Cosmos 1937 Rocket 4.4 05:05:40 10° S 05:10:36 48° ESE 05:15:36 10° NNE
USA 308 3.2 05:11:14 49° NNW 05:11:52 54° N 05:16:07 10° E
Lacrosse 4 Rocket 3.2 05:14:32 19° SSW 05:14:32 19° SSW 05:16:15 10° SSW
Cosmos 1833 Rocket 4.3 05:08:13 11° NNW 05:12:55 30° NE 05:17:49 10° ESE
Meteor 2-3 Rocket 3.7 05:09:31 10° SSW 05:15:13 64° WNW 05:21:00 10° N
CZ-4C R/B 2.4 05:11:05 11° SSW 05:15:58 68° SE 05:22:02 10° NE
CZ-4B R/B 3.2 05:12:25 10° NNE 05:16:58 78° ESE 05:21:22 10° S
MOS 1 Rocket 3.9 05:12:23 10° SSE 05:17:12 63° ENE 05:22:20 10° N
FALCON 9 DEB 3.8 05:18:32 38° S 05:19:12 46° SSE 05:22:19 10° ENE
Meteor 1-10 Rocket 4.4 05:13:58 10° N 05:19:33 72° ENE 05:25:08 10° SSE
Cosmos 1689 Rocket 3.7 05:16:52 10° S 05:18:12 25° S 05:18:12 25° S
ATLAS 3B R/B 2.8 05:17:51 30° WNW 05:21:25 61° SW 05:28:27 10° SSE
COSMOS 2406 4.4 05:18:03 11° NNW 05:23:12 39° NE 05:28:34 10° ESE
SAR-Lupe-4 4.4 05:20:09 10° S 05:22:38 35° SW 05:22:38 35° SW
Aureole 2 Rocket 4.4 05:22:25 10° SSE 05:24:28 21° ESE 05:26:32 10° NE
YAOGAN 6 4.4 05:24:24 10° NNE 05:27:36 32° E 05:30:46 10° SSE
Cosmos 1862 3.8 05:23:53 10° S 05:27:54 64° E 05:31:56 10° NNE
Genesis I 3.6 05:24:57 10° SSW 05:28:43 61° SE 05:32:32 10° NE
deb Chang Zheng 4 3.6 05:26:31 10° N 05:30:45 53° WNW 05:34:59 10° SW
ALOS 2.8 05:26:35 10° N 05:30:51 36° WNW 05:31:45 33° W
Cosmos 990 Rocket 3.9 05:30:56 10° SSW 05:36:10 73° WNW 05:41:28 10° NNE
Cosmos 2074 Rocket 3.9 05:31:41 10° SSW 05:37:53 77° W 05:44:08 10° N
METEOR-M 4.4 05:33:15 10° N 05:38:19 44° WNW 05:43:21 10° SW
ASTRO F (AKARI) 4.5 05:35:27 10° NNE 05:38:32 68° ESE 05:41:39 10° S
Cosmos 2227 Rocket 4.1 05:39:03 12° NNW 05:39:31 13° NNW 05:41:54 10° N
Meteor 1-31 Rocket 3.3 05:37:01 10° N 05:40:29 34° WNW 05:40:29 34° WNW
USA 305 3.1 05:38:55 31° WNW 05:40:46 60° N 05:45:02 10° E
BREEZE M DEB (TANK) 4.4 05:34:56 10° SW 05:41:33 29° SSE 05:44:19 10° E
Cosmos 405 Rocket 2.7 05:39:58 10° S 05:43:40 81° E 05:47:27 10° NNE
Cosmos 1812 2.6 05:42:51 14° NNW 05:46:07 64° W 05:49:55 10° S
EO 1 Delta rocket 3.8 05:43:07 10° S 05:48:02 63° W 05:52:37 10° NNW
Cosmos 2228 Rocket 3.0 05:44:12 10° NNW 05:48:37 66° W 05:52:58 10° S
Cosmos 1515 Rocket 4.2 05:46:48 21° NW 05:49:02 34° W 05:53:03 10° SSW
USA 306 3.1 05:47:01 27° WNW 05:49:14 62° NNE 05:53:30 10° E
CENTAUR R/B 4.4 05:48:50 17° W 05:50:11 18° WSW 05:55:32 10° SW
Cosmos 1782 4.0 05:52:15 23° W 05:52:15 23° W 05:55:08 10° SW
SL-4 R/B 1.7 05:50:37 28° WNW 05:52:34 77° N 05:56:14 10° E
NOSS 3-4 (A) 3.7 05:48:19 17° WSW 05:52:47 50° NW 05:59:08 10° NE
NOSS 3-4 (C) 3.7 05:48:24 17° WSW 05:52:55 50° NNW 05:59:17 10° NE
DMSP B5D1-3 4.5 05:49:38 10° S 05:54:46 68° WSW 05:59:56 10° NNW
Cosmos 2184 Rocket 4.0 05:49:13 10° SSW 05:55:27 61° WNW 06:01:48 10° N
USA-17 4.3 05:52:06 10° SW 05:55:41 80° SE 05:58:46 10° NE
USA 234 4.4 05:51:50 10° ENE 05:58:03 45° SE 06:04:15 10° SSW
FALCON 9 DEB 2.9 05:56:59 21° WSW 05:58:58 86° SSE 06:02:12 10° ENE
FALCON 9 DEB 3.2 05:59:52 25° WNW 06:01:45 69° NNE 06:05:13 10° E
Cosmos 1844 Rocket 2.6 05:56:08 10° SW 06:01:47 73° WNW 06:07:30 10° NNE
Cosmos 1707 Rocket 3.7 06:01:18 10° N 06:05:40 76° E 06:09:58 10° SSE
EXPRESS MD2 4.2 06:03:36 19° W 06:06:20 62° SSW 06:13:41 10° ESE
Meteor PRIRODA 4.3 06:05:49 10° N 06:09:10 32° WNW 06:12:32 10° SW
ATLAS CENTAUR R/B 2.5 06:08:18 18° W 06:09:45 23° WSW 06:12:51 10° S
COSMOS 2455 3.3 06:03:56 10° SSW 06:09:54 67° ESE 06:15:54 10° NE
RESURS DK-1 2.6 06:06:08 10° SW 06:10:09 46° NW 06:14:11 10° NNE
NOAA 6 4.0 06:05:47 10° NNE 06:10:56 88° ESE 06:16:03 10° SSW
ERBS 3.5 06:11:05 18° NW 06:12:43 26° N 06:15:36 10° NE
ATLAS 2AS CENTAUR R/B 3.2 06:04:56 10° WSW 06:12:44 54° NW 06:20:20 10° NE
EP 3 3.4 06:11:51 22° WSW 06:12:53 56° NW 06:14:46 10° NE
H-2A R/B 3.0 06:09:48 10° N 06:13:34 46° WNW 06:17:17 10° SW
Cosmos 1500 Rocket 3.9 06:11:01 10° SW 06:15:04 39° WNW 06:19:10 10° N
Cosmos 1844 3.6 06:10:09 10° SW 06:15:42 71° WNW 06:21:19 10° NNE
CZ-4B DEB 4.2 06:10:36 10° NNE 06:16:05 84° WNW 06:21:34 10° SSW
Lacrosse 5 2.0 06:11:18 11° WSW 06:16:07 59° NNW 06:21:09 10° ENE
Cosmos 1437 Rocket 2.9 06:12:35 10° NNW 06:16:15 46° W 06:19:51 10° S
Cosmos 372 Rocket 4.0 06:14:08 10° SSW 06:19:14 89° E 06:24:22 10° NNE
Okean O Rocket 2.2 06:15:14 10° NNE 06:19:41 64° ESE 06:24:06 10° S
Cosmos 1242 Rocket 3.6 06:17:43 10° N 06:21:15 46° ENE 06:24:48 10° SSE
Uosat 12 SS-18 rocket 4.5 06:16:46 12° NW 06:21:15 82° SW 06:27:00 10° SE
PAYLOAD B 4.2 06:16:58 10° NNE 06:22:32 89° WNW 06:28:02 10° SSW
Geosat 4.1 06:17:58 10° SE 06:23:00 83° ENE 06:28:04 10° NNW
SMAP 3.2 06:18:42 10° NNE 06:23:23 79° ESE 06:28:03 10° SSW
SJ 16-02 2.9 06:22:56 13° W 06:25:06 17° NW 06:28:02 10° N
USA 81 4.1 06:20:13 10° S 06:25:28 85° E 06:30:47 10° N
Cosmos 2263 Rocket 3.6 06:24:56 12° WNW 06:28:27 20° NW 06:32:32 10° NNE
ATLAS 5 CENTAUR R/B 3.1 06:28:23 10° SSW 06:32:12 40° ESE 06:36:29 10° NE
FALCON 9 DEB 2.9 06:29:08 10° W 06:32:20 71° NNW 06:35:34 10° ENE
FALCON 9 DEB 2.9 06:29:12 10° W 06:32:24 70° NNW 06:35:38 10° ENE
Nadezhda 3 Rocket 4.5 06:27:54 10° NNW 06:33:41 40° W 06:39:24 10° SSW
Sich 1 3.1 06:31:18 10° SSW 06:35:41 60° WNW 06:40:07 10° N
Cosmos 1898 Rocket 4.2 06:31:03 10° WSW 06:35:49 33° NW 06:40:39 10° N
Cosmos 2218 Rocket 4.4 06:29:42 10° S 06:35:56 71° E 06:42:06 10° NNE
CZ-2C R/B 2.7 06:31:23 10° S 06:36:51 68° WSW 06:42:13 10° NNW
AQUARIUS 4.2 06:32:37 10° NNE 06:37:08 86° WNW 06:41:38 10° SSW
H-2A R/B 2.5 06:33:52 10° N 06:37:37 48° WNW 06:41:18 10° SW
Envisat 3.1 06:32:45 10° N 06:37:42 52° WNW 06:42:36 10° SW
Cosmos 2366 rocket 4.4 06:34:00 10° S 06:40:17 74° E 06:46:34 10° NNE
CORIOLIS 4.3 06:37:02 10° NNE 06:42:32 88° ESE 06:47:59 10° SSW
USA 307 3.0 06:41:28 10° WNW 06:45:48 88° SSW 06:50:08 10° ESE
Cosmos 2082 Rocket 2.6 06:41:35 10° NNW 06:47:18 69° ENE 06:52:59 10° SE
CZ-4B R/B 3.1 06:42:03 10° NNE 06:47:25 78° WNW 06:52:49 10° SSW
NOAA 11 4.4 06:43:37 10° NNE 06:49:09 82° ESE 06:54:39 10° SSW
CZ-4 R/B 3.6 06:46:12 10° NNE 06:50:00 32° E 06:53:47 10° SSE
Cosmos 1862 Rocket 3.6 06:47:18 10° NNW 06:51:47 73° W 06:56:11 10° S
USA 308 3.0 06:47:49 10° WNW 06:52:09 83° SSW 06:56:28 10° ESE
Cosmos 1937 Rocket 4.2 06:48:13 10° WSW 06:52:47 31° NW 06:57:26 10° N
Cosmos 1939 Rocket 3.4 06:48:53 10° NNE 06:52:57 69° ESE 06:57:03 10° S
FALCON 9 DEB 3.1 06:52:02 10° W 06:55:14 61° N 06:58:28 10° ENE
Cosmos 1833 Rocket 2.8 06:51:43 10° NW 06:57:18 65° WSW 07:02:50 10° SSE
Cosmos 1269 Rocket 4.4 06:52:22 10° NNW 06:57:41 71° ENE 07:02:57 10° SSE
